Time,TemperatureF,DewpointF,PressureIn,WindDirection,WindDirectionDegrees,WindSpeedMPH,WindSpeedGustMPH,Humidity,HourlyPrecipIn,Conditions,Clouds,dailyrainin,SoftwareType,DateUTC
2013-07-06 00:12:00,70.9,70.3,29.85,WSW,247,2.7,-999.0,98,-99.99,,,0.00,Acu-Link.com,2013-07-06 04:12:00,
2013-07-06 00:28:00,70.5,69.9,29.85,SW,225,0.0,-999.0,98,-99.99,,,0.00,Acu-Link.com,2013-07-06 04:28:00,
2013-07-06 00:43:00,70.3,69.7,29.86,SE,135,0.0,-999.0,98,-99.99,,,0.00,Acu-Link.com,2013-07-06 04:43:00,
2013-07-06 00:58:00,70.3,69.7,29.86,South,180,0.0,-999.0,98,-99.99,,,0.00,Acu-Link.com,2013-07-06 04:58:00,
2013-07-06 01:13:00,70.2,69.6,29.86,NW,315,0.0,-999.0,98,-99.99,,,0.00,Acu-Link.com,2013-07-06 05:13:00,
2013-07-06 01:28:00,70.2,69.6,29.86,ENE,67,0.0,-999.0,98,-99.99,,,0.00,Acu-Link.com,2013-07-06 05:28:00,
2013-07-06 01:43:00,70.2,69.6,29.86,NE,45,0.0,-999.0,98,-99.99,,,0.00,Acu-Link.com,2013-07-06 05:43:00,
2013-07-06 01:58:00,70.3,69.7,29.85,WNW,292,0.0,-999.0,98,-99.99,,,0.00,Acu-Link.com,2013-07-06 05:58:00,
2013-07-06 02:13:00,70.3,69.7,29.84,ESE,112,0.0,-999.0,98,-99.99,,,0.00,Acu-Link.com,2013-07-06 06:13:00,
2013-07-06 02:28:00,70.5,69.9,29.85,South,180,0.0,-999.0,98,-99.99,,,0.00,Acu-Link.com,2013-07-06 06:28:00,
2013-07-06 02:44:00,70.5,69.9,29.84,South,180,0.0,-999.0,98,-99.99,,,0.00,Acu-Link.com,2013-07-06 06:44:00,
2013-07-06 02:59:00,70.5,69.9,29.85,WSW,247,0.0,-999.0,98,-99.99,,,0.00,Acu-Link.com,2013-07-06 06:59:00,
2013-07-06 03:14:00,70.5,69.9,29.85,SSW,202,0.0,-999.0,98,-99.99,,,0.00,Acu-Link.com,2013-07-06 07:14:00,
2013-07-06 03:29:00,70.5,69.9,29.85,SW,225,0.0,-999.0,98,-99.99,,,0.00,Acu-Link.com,2013-07-06 07:29:00,
2013-07-06 03:44:00,70.5,69.9,29.84,NE,45,0.0,-999.0,98,-99.99,,,0.00,Acu-Link.com,2013-07-06 07:44:00,
2013-07-06 03:59:00,70.5,69.9,29.84,SW,225,0.0,-999.0,98,-99.99,,,0.00,Acu-Link.com,2013-07-06 07:59:00,
2013-07-06 04:15:00,70.5,69.9,29.84,West,270,0.0,-999.0,98,-99.99,,,0.00,Acu-Link.com,2013-07-06 08:15:00,
2013-07-06 04:30:00,70.5,69.9,29.84,South,180,0.0,-999.0,98,-99.99,,,0.00,Acu-Link.com,2013-07-06 08:30:00,
2013-07-06 04:46:00,70.5,69.9,29.84,SSW,202,0.0,-999.0,98,-99.99,,,0.00,Acu-Link.com,2013-07-06 08:46:00,
2013-07-06 05:01:00,70.7,70.1,29.84,SSW,202,3.7,-999.0,98,-99.99,,,0.00,Acu-Link.com,2013-07-06 09:01:00,
2013-07-06 05:16:00,70.9,70.3,29.83,SW,225,2.7,-999.0,98,-99.99,,,0.00,Acu-Link.com,2013-07-06 09:16:00,
2013-07-06 05:31:00,70.9,70.3,29.84,SSW,202,2.2,-999.0,98,-99.99,,,0.01,Acu-Link.com,2013-07-06 09:31:00,
2013-07-06 05:46:00,70.5,69.9,29.84,SSW,202,3.2,-999.0,98,-99.99,,,0.03,Acu-Link.com,2013-07-06 09:46:00,
2013-07-06 06:01:00,70.7,70.1,29.85,SSW,202,3.2,-999.0,98,-99.99,,,0.03,Acu-Link.com,2013-07-06 10:01:00,
2013-07-06 06:16:00,70.7,70.1,29.85,WNW,292,2.7,-999.0,98,-99.99,,,0.03,Acu-Link.com,2013-07-06 10:16:00,
2013-07-06 06:31:00,70.7,70.1,29.85,South,180,3.2,-999.0,98,-99.99,,,0.03,Acu-Link.com,2013-07-06 10:31:00,
2013-07-06 06:47:00,70.7,70.1,29.85,SSW,202,4.7,-999.0,98,-99.99,,,0.03,Acu-Link.com,2013-07-06 10:47:00,
2013-07-06 07:02:00,70.9,70.3,29.85,SW,225,3.2,-999.0,98,-99.99,,,0.03,Acu-Link.com,2013-07-06 11:02:00,
2013-07-06 07:17:00,70.9,70.3,29.86,SSW,202,2.7,-999.0,98,-99.99,,,0.03,Acu-Link.com,2013-07-06 11:17:00,
2013-07-06 07:32:00,70.9,70.3,29.85,South,180,3.2,-999.0,98,-99.99,,,0.04,Acu-Link.com,2013-07-06 11:32:00,
2013-07-06 07:47:00,70.9,70.3,29.86,WNW,292,0.0,-999.0,98,-99.99,,,0.05,Acu-Link.com,2013-07-06 11:47:00,
2013-07-06 08:02:00,71.1,70.5,29.86,WSW,247,0.0,-999.0,98,-99.99,,,0.05,Acu-Link.com,2013-07-06 12:02:00,
2013-07-06 08:18:00,71.2,70.6,29.86,WNW,292,0.0,-999.0,98,-99.99,,,0.05,Acu-Link.com,2013-07-06 12:18:00,
2013-07-06 08:33:00,71.4,70.8,29.86,ENE,67,0.0,-999.0,98,-99.99,,,0.07,Acu-Link.com,2013-07-06 12:33:00,
2013-07-06 08:48:00,71.2,70.6,29.86,SSW,202,3.2,-999.0,98,-99.99,,,0.08,Acu-Link.com,2013-07-06 12:48:00,
2013-07-06 09:03:00,71.4,70.8,29.87,SSW,202,1.7,-999.0,98,-99.99,,,0.09,Acu-Link.com,2013-07-06 13:03:00,
2013-07-06 09:18:00,71.6,71.0,29.86,NW,315,0.0,-999.0,98,-99.99,,,0.09,Acu-Link.com,2013-07-06 13:18:00,
2013-07-06 09:33:00,71.6,71.0,29.87,South,180,2.2,-999.0,98,-99.99,,,0.10,Acu-Link.com,2013-07-06 13:33:00,
2013-07-06 09:48:00,71.6,71.0,29.87,SW,225,2.7,-999.0,98,-99.99,,,0.11,Acu-Link.com,2013-07-06 13:48:00,
2013-07-06 10:03:00,72.0,71.4,29.86,SSW,202,3.7,-999.0,98,-99.99,,,0.13,Acu-Link.com,2013-07-06 14:03:00,
2013-07-06 10:18:00,72.1,71.5,29.86,South,180,3.7,-999.0,98,-99.99,,,0.15,Acu-Link.com,2013-07-06 14:18:00,
2013-07-06 10:34:00,72.3,71.7,29.85,SSW,202,3.2,-999.0,98,-99.99,,,0.16,Acu-Link.com,2013-07-06 14:34:00,
2013-07-06 10:49:00,72.5,71.9,29.85,South,180,3.7,-999.0,98,-99.99,,,0.16,Acu-Link.com,2013-07-06 14:49:00,
2013-07-06 11:04:00,72.3,71.7,29.85,South,180,2.2,-999.0,98,-99.99,,,0.16,Acu-Link.com,2013-07-06 15:04:00,
2013-07-06 11:19:00,72.3,71.7,29.86,East,90,1.1,-999.0,98,-99.99,,,0.45,Acu-Link.com,2013-07-06 15:19:00,
2013-07-06 11:34:00,72.3,71.7,29.86,South,180,2.2,-999.0,98,-99.99,,,0.76,Acu-Link.com,2013-07-06 15:34:00,
2013-07-06 11:49:00,72.0,71.4,29.87,SSW,202,1.7,-999.0,98,-99.99,,,1.08,Acu-Link.com,2013-07-06 15:49:00,
2013-07-06 12:04:00,72.3,71.7,29.88,ESE,112,0.0,-999.0,98,-99.99,,,1.13,Acu-Link.com,2013-07-06 16:04:00,
2013-07-06 12:49:00,69.8,69.2,29.87,SSW,202,3.7,-999.0,98,-99.99,,,1.50,Acu-Link.com,2013-07-06 16:49:00,
2013-07-06 13:05:00,69.6,69.0,29.87,NW,315,0.0,-999.0,98,-99.99,,,1.56,Acu-Link.com,2013-07-06 17:05:00,
2013-07-06 13:20:00,69.8,69.2,29.86,SSE,157,0.0,-999.0,98,-99.99,,,1.62,Acu-Link.com,2013-07-06 17:20:00,
2013-07-06 13:50:00,69.8,69.2,29.86,NNE,22,0.0,-999.0,98,-99.99,,,1.84,Acu-Link.com,2013-07-06 17:50:00,
2013-07-06 14:20:00,70.7,70.1,29.86,SW,225,0.0,-999.0,98,-99.99,,,1.93,Acu-Link.com,2013-07-06 18:20:00,
2013-07-06 14:36:00,71.4,70.8,29.87,SSE,157,0.0,-999.0,98,-99.99,,,1.98,Acu-Link.com,2013-07-06 18:36:00,
2013-07-06 14:51:00,71.8,71.2,29.86,West,270,0.0,-999.0,98,-99.99,,,2.02,Acu-Link.com,2013-07-06 18:51:00,
2013-07-06 15:06:00,71.6,71.0,29.86,South,180,0.0,-999.0,98,-99.99,,,2.03,Acu-Link.com,2013-07-06 19:06:00,
2013-07-06 15:21:00,71.4,70.8,29.85,NE,45,0.0,-999.0,98,-99.99,,,2.04,Acu-Link.com,2013-07-06 19:21:00,
2013-07-06 15:36:00,72.1,71.5,29.85,NNE,22,0.0,-999.0,98,-99.99,,,2.04,Acu-Link.com,2013-07-06 19:36:00,
2013-07-06 15:51:00,72.0,71.4,29.85,South,180,0.0,-999.0,98,-99.99,,,2.04,Acu-Link.com,2013-07-06 19:51:00,
2013-07-06 16:07:00,71.8,71.2,29.84,North,0,0.0,-999.0,98,-99.99,,,2.04,Acu-Link.com,2013-07-06 20:07:00,
2013-07-06 17:07:00,72.3,71.7,29.85,West,270,0.0,-999.0,98,-99.99,,,2.07,Acu-Link.com,2013-07-06 21:07:00,
2013-07-06 17:22:00,71.6,71.0,29.84,NNE,22,0.0,-999.0,98,-99.99,,,2.18,Acu-Link.com,2013-07-06 21:22:00,
2013-07-06 18:53:00,70.9,70.3,29.84,West,270,0.0,-999.0,98,-99.99,,,2.42,Acu-Link.com,2013-07-06 22:53:00,
2013-07-06 19:23:00,70.3,69.7,29.83,SW,225,0.0,-999.0,98,-99.99,,,2.44,Acu-Link.com,2013-07-06 23:23:00,
2013-07-06 19:53:00,70.0,69.4,29.83,NNW,337,0.0,-999.0,98,-99.99,,,2.65,Acu-Link.com,2013-07-06 23:53:00,
2013-07-06 20:24:00,69.8,69.2,29.83,North,0,0.0,-999.0,98,-99.99,,,2.75,Acu-Link.com,2013-07-07 00:24:00,
2013-07-06 20:39:00,69.8,69.2,29.82,NNE,22,0.0,-999.0,98,-99.99,,,2.76,Acu-Link.com,2013-07-07 00:39:00,
2013-07-06 21:10:00,69.6,69.0,29.83,NE,45,0.0,-999.0,98,-99.99,,,2.77,Acu-Link.com,2013-07-07 01:10:00,
2013-07-06 22:40:00,69.1,68.5,29.84,ESE,112,0.0,-999.0,98,-99.99,,,2.86,Acu-Link.com,2013-07-07 02:40:00,
2013-07-06 23:10:00,68.9,68.3,29.85,NE,45,0.0,-999.0,98,-99.99,,,2.86,Acu-Link.com,2013-07-07 03:10:00,
2013-07-06 23:26:00,68.9,68.3,29.85,SE,135,0.0,-999.0,98,-99.99,,,2.86,Acu-Link.com,2013-07-07 03:26:00,
2013-07-06 23:56:00,68.9,68.3,29.85,ESE,112,0.0,-999.0,98,-99.99,,,2.86,Acu-Link.com,2013-07-07 03:56:00,